Weather History for Council Bluffs, IA

Change the Weather History Date:

Tuesday, September 24, 2013

  Actual Average Record
Temperature  
Mean Temperature 63 °F -  
Max Temperature 69 °F 72 °F 87 °F (2007)
Min Temperature 57 °F 50 °F 41 °F (1996)
Degree Days  
Heating Degree Days 2    
Growing Degree Days 13 (Base 50)    
Moisture  
Dew Point 57 °F    
Average Humidity 81    
Maximum Humidity 100    
Minimum Humidity 68    
Precipitation  
Precipitation 0.00 in - - ()
Sea Level Pressure  
Sea Level Pressure 29.83 in    
Wind  
Wind Speed 10 mph (ENE)    
Max Wind Speed 16 mph    
Max Gust Speed 23 mph    
Visibility 10 miles    
Events      
Averages and records for this station are not official NWS values.
T = Trace of Precipitation, MM = Missing Value Source: NWS Daily Summary

Daily Weather History Graph

Daily Weather History Graph

Search for Another Location

Airport:

Trip Planner

Search our weather history database for the weather conditions in past years. The results will help you decide how hot, cold, wet, or windy it might be!

Date:

Astronomy

Sep. 24, 2013 Rise Set
Actual Time 7:12 AM CDT 7:16 PM CDT
Civil Twilight 6:45 AM CDT 7:43 PM CDT
Nautical Twilight 6:13 AM CDT 8:15 PM CDT
Astronomical Twilight 5:40 AM CDT 8:48 PM CDT
Moon 10:31 PM CDT (9/24) 12:31 PM CDT (9/24)
Length of Visible Light 12h 58m
Length of Day
12h 03m
Waning Gibbous, 73% of the Moon is Illuminated
Sep 24
Waning Gibbous
Sep 26
Last Quarter
Oct 4
New
Oct 11
First Quarter
Oct 18
Full

Hourly Weather History & Observations

Time (CDT) Temp. Dew Point Humidity Pressure Visibility Wind Dir Wind Speed Gust Speed Precip Events Conditions
12:15 AM 64.4 °F 53.6 °F 68% 29.75 in 10.0 mi SE 16.1 mph 21.9 mph N/A   Overcast
12:35 AM 64.4 °F 53.6 °F 68% 29.75 in 10.0 mi ESE 15.0 mph 20.7 mph N/A   Overcast
12:55 AM 64.4 °F 53.6 °F 68% 29.74 in 10.0 mi ESE 16.1 mph 23.0 mph N/A   Overcast
1:15 AM 64.4 °F 53.6 °F 68% 29.73 in 10.0 mi ESE 13.8 mph 20.7 mph N/A   Overcast
1:35 AM 64.4 °F 53.6 °F 68% 29.73 in 10.0 mi ESE 12.7 mph - N/A   Overcast
1:55 AM 64.4 °F 53.6 °F 68% 29.74 in 10.0 mi ESE 11.5 mph 17.3 mph N/A   Mostly Cloudy
2:35 AM 64.4 °F 53.6 °F 68% 29.74 in 10.0 mi SE 11.5 mph 19.6 mph N/A   Overcast
2:55 AM 64.4 °F 53.6 °F 68% 29.73 in 10.0 mi ESE 12.7 mph - N/A   Overcast
3:15 AM 62.6 °F 53.6 °F 72% 29.73 in 10.0 mi ESE 10.4 mph 16.1 mph N/A   Overcast
3:35 AM 62.6 °F 53.6 °F 72% 29.73 in 10.0 mi ESE 10.4 mph 17.3 mph N/A   Overcast
3:55 AM 62.6 °F 53.6 °F 72% 29.74 in 10.0 mi ESE 8.1 mph - N/A   Overcast
4:35 AM 62.6 °F 55.4 °F 77% 29.74 in 10.0 mi ESE 10.4 mph - N/A   Overcast
4:55 AM 62.6 °F 55.4 °F 77% 29.74 in 10.0 mi ESE 11.5 mph - N/A   Overcast
5:15 AM 60.8 °F 55.4 °F 82% 29.74 in 10.0 mi ESE 9.2 mph 16.1 mph N/A   Overcast
5:35 AM 60.8 °F 55.4 °F 82% 29.75 in 10.0 mi ESE 6.9 mph - N/A   Overcast
5:55 AM 60.8 °F 55.4 °F 82% 29.76 in 10.0 mi ESE 6.9 mph - N/A   Overcast
6:15 AM 60.8 °F 55.4 °F 82% 29.76 in 10.0 mi ESE 6.9 mph - N/A   Overcast
6:35 AM 60.8 °F 55.4 °F 82% 29.76 in 10.0 mi East 8.1 mph - N/A   Overcast
6:55 AM 60.8 °F 55.4 °F 82% 29.76 in 10.0 mi East 8.1 mph - N/A   Overcast
7:15 AM 60.8 °F 55.4 °F 82% 29.76 in 10.0 mi East 9.2 mph - N/A   Overcast
7:35 AM 60.8 °F 55.4 °F 82% 29.78 in 10.0 mi East 5.8 mph - N/A   Mostly Cloudy
7:55 AM 60.8 °F 57.2 °F 88% 29.79 in 10.0 mi NNW 4.6 mph - N/A   Scattered Clouds
8:15 AM 60.8 °F 57.2 °F 88% 29.79 in 10.0 mi ENE 6.9 mph - N/A   Scattered Clouds
8:35 AM 60.8 °F 57.2 °F 88% 29.79 in 10.0 mi NE 5.8 mph - N/A   Mostly Cloudy
8:55 AM 60.8 °F 57.2 °F 88% 29.81 in 10.0 mi NE 6.9 mph - N/A   Mostly Cloudy
9:15 AM 60.8 °F 57.2 °F 88% 29.81 in 10.0 mi NNE 5.8 mph - N/A   Mostly Cloudy
9:35 AM 62.6 °F 57.2 °F 82% 29.82 in 10.0 mi NE 6.9 mph - N/A   Mostly Cloudy
9:55 AM 62.6 °F 57.2 °F 82% 29.82 in 10.0 mi ENE 6.9 mph - N/A   Mostly Cloudy
10:15 AM 62.6 °F 57.2 °F 82% 29.83 in 10.0 mi NE 6.9 mph - N/A   Mostly Cloudy
10:35 AM 62.6 °F 57.2 °F 82% 29.84 in 10.0 mi NE 8.1 mph - N/A   Overcast
10:55 AM 64.4 °F 59.0 °F 83% 29.85 in 10.0 mi ENE 10.4 mph - N/A   Mostly Cloudy
11:15 AM 62.6 °F 57.2 °F 82% 29.85 in 10.0 mi NNE 9.2 mph - N/A   Mostly Cloudy
11:35 AM 64.4 °F 57.2 °F 77% 29.86 in 10.0 mi NE 6.9 mph - N/A   Mostly Cloudy
11:55 AM 66.2 °F 59.0 °F 78% 29.86 in 10.0 mi NE 9.2 mph - N/A   Scattered Clouds
12:15 PM 66.2 °F 59.0 °F 78% 29.86 in 10.0 mi NNE 10.4 mph - N/A   Partly Cloudy
12:55 PM 68.0 °F 59.0 °F 73% 29.86 in 10.0 mi NNE 10.4 mph - N/A   Scattered Clouds
1:15 PM 68.0 °F 59.0 °F 73% 29.87 in 10.0 mi NNE 10.4 mph 17.3 mph N/A   Scattered Clouds
1:35 PM 68.0 °F 59.0 °F 73% 29.87 in 10.0 mi NNE 12.7 mph - N/A   Mostly Cloudy
1:55 PM 69.8 °F 59.0 °F 68% 29.86 in 10.0 mi NNE 11.5 mph - N/A   Scattered Clouds
2:15 PM 69.8 °F 59.0 °F 68% 29.86 in 10.0 mi NE 9.2 mph - N/A   Scattered Clouds
2:35 PM 69.8 °F 59.0 °F 68% 29.87 in 10.0 mi NE 12.7 mph - N/A   Scattered Clouds
2:55 PM 69.8 °F 59.0 °F 68% 29.86 in 10.0 mi NE 10.4 mph - N/A   Partly Cloudy
3:15 PM 69.8 °F 59.0 °F 68% 29.87 in 10.0 mi ENE 5.8 mph 13.8 mph N/A   Clear
3:35 PM 69.8 °F 59.0 °F 68% 29.87 in 10.0 mi NE 9.2 mph - N/A   Partly Cloudy
3:55 PM 68.0 °F 59.0 °F 73% 29.87 in 10.0 mi NE 11.5 mph - N/A   Scattered Clouds
4:15 PM 68.0 °F 59.0 °F 73% 29.87 in 10.0 mi ENE 11.5 mph - N/A   Partly Cloudy
4:35 PM 68.0 °F 59.0 °F 73% 29.87 in 10.0 mi NE 10.4 mph - N/A   Scattered Clouds
4:55 PM 66.2 °F 59.0 °F 78% 29.88 in 10.0 mi ENE 9.2 mph - N/A   Mostly Cloudy
5:15 PM 66.2 °F 59.0 °F 78% 29.89 in 10.0 mi Variable 3.5 mph 12.7 mph N/A   Mostly Cloudy
5:35 PM 66.2 °F 59.0 °F 78% 29.89 in 10.0 mi NE 6.9 mph - N/A   Mostly Cloudy
5:55 PM 66.2 °F 59.0 °F 78% 29.89 in 10.0 mi ENE 5.8 mph - N/A   Mostly Cloudy
6:15 PM 66.2 °F 59.0 °F 78% 29.90 in 10.0 mi NE 5.8 mph - N/A   Mostly Cloudy
6:35 PM 64.4 °F 59.0 °F 83% 29.89 in 10.0 mi NE 3.5 mph - N/A   Partly Cloudy
6:55 PM 64.4 °F 59.0 °F 83% 29.89 in 10.0 mi NNE 5.8 mph - N/A   Clear
7:15 PM 62.6 °F 59.0 °F 88% 29.89 in 10.0 mi NNE 5.8 mph - N/A   Clear
7:35 PM 60.8 °F 59.0 °F 94% 29.89 in 10.0 mi NNE 4.6 mph - N/A   Clear
7:55 PM 60.8 °F 59.0 °F 94% 29.89 in 10.0 mi NNE 4.6 mph - N/A   Scattered Clouds
8:15 PM 60.8 °F 59.0 °F 94% 29.89 in 10.0 mi NNE 5.8 mph - N/A   Mostly Cloudy
8:35 PM 60.8 °F 59.0 °F 94% 29.89 in 10.0 mi NNE 5.8 mph - N/A   Mostly Cloudy
8:55 PM 59.0 °F 59.0 °F 100% 29.90 in 10.0 mi North 5.8 mph - N/A   Overcast
9:15 PM 59.0 °F 59.0 °F 100% 29.90 in 10.0 mi North 5.8 mph - N/A   Overcast
9:35 PM 59.0 °F 59.0 °F 100% 29.91 in 9.0 mi North 6.9 mph - N/A   Mostly Cloudy
9:55 PM 59.0 °F 59.0 °F 100% 29.91 in 9.0 mi NNE 6.9 mph - N/A   Scattered Clouds
10:15 PM 59.0 °F 57.2 °F 94% 29.90 in 10.0 mi North 6.9 mph - N/A   Mostly Cloudy
10:35 PM 59.0 °F 59.0 °F 100% 29.90 in 10.0 mi North 5.8 mph - N/A   Mostly Cloudy
10:55 PM 59.0 °F 59.0 °F 100% 29.91 in 10.0 mi North 6.9 mph - N/A   Partly Cloudy
11:15 PM 57.2 °F 57.2 °F 100% 29.91 in 8.0 mi North 6.9 mph - N/A   Clear
11:35 PM 57.2 °F 57.2 °F 100% 29.91 in 9.0 mi North 6.9 mph - N/A   Clear
11:55 PM 57.2 °F 57.2 °F 100% 29.91 in 8.0 mi NNE 5.8 mph - N/A   Clear